Berlin, NH

12:41 PM EDT on June 23, 2017 (GMT -0400)
Berlin Municipal

Weather History for KBML - September, 2012

Change the Weather History Date:

Wednesday, September 12, 2012

  Actual Average Record
Temperature  
Mean Temperature 58 °F -  
Max Temperature 79 °F 69 °F 80 °F (2013)
Min Temperature 37 °F 42 °F 33 °F (2002)
Degree Days  
Heating Degree Days 7    
Growing Degree Days 8 (Base 50)    
Moisture  
Dew Point 43 °F    
Average Humidity 84    
Maximum Humidity 100    
Minimum Humidity 29    
Precipitation  
Precipitation 0.00 in - - ()
Sea Level Pressure  
Sea Level Pressure 30.33 in    
Wind  
Wind Speed 0 mph (SSW)    
Max Wind Speed 4 mph    
Max Gust Speed -    
Visibility 5 miles    
Events Fog    
Averages and records for this station are not official NWS values.
T = Trace of Precipitation, MM = Missing Value Source: NWS Daily Summary

Daily Weather History Graph

Daily Weather History Graph

Search for Another Location

Airport or City:

Trip Planner

Search our weather history database for the weather conditions in past years. The results will help you decide how hot, cold, wet, or windy it might be!

Date:

Astronomy

Sep. 12, 2012 Rise Set
Actual Time 6:20 AM EDT 7:00 PM EDT
Civil Twilight 5:51 AM EDT 7:29 PM EDT
Nautical Twilight 5:16 AM EDT 8:04 PM EDT
Astronomical Twilight 4:40 AM EDT 8:40 PM EDT
Moon 2:27 AM EDT (9/12) 4:51 PM EDT (9/12)
Length of Visible Light 13h 38m
Length of Day
12h 39m
Waning Crescent, 14% of the Moon is Illuminated
Sep 12
Waning Crescent
Sep 15
New
Sep 22
First Quarter
Sep 29
Full
Oct 8
Last Quarter

Hourly Weather History & Observations

Time (EDT) Temp. Dew Point Humidity Pressure Visibility Wind Dir Wind Speed Gust Speed Precip Events Conditions
12:50 AM 39.2 °F 37.4 °F 93% 30.28 in 0.2 mi Calm Calm - N/A Fog Fog
12:52 AM 39.0 °F 37.9 °F 96% 30.29 in 0.2 mi Calm Calm - N/A Fog Fog
1:27 AM 39.2 °F 37.4 °F 93% 30.28 in 0.5 mi Calm Calm - N/A Fog Fog
1:52 AM 39.0 °F 37.9 °F 96% 30.31 in 0.2 mi Calm Calm - N/A Fog Fog
2:52 AM 39.9 °F 39.0 °F 97% 30.32 in 0.2 mi Calm Calm - N/A Fog Fog
3:52 AM 39.0 °F 37.9 °F 96% 30.32 in 0.2 mi Calm Calm - N/A Fog Fog
4:11 AM 39.2 °F 37.4 °F 93% 30.31 in 0.2 mi Calm Calm - N/A Fog Fog
4:24 AM 39.2 °F 37.4 °F 93% 30.32 in 0.8 mi Calm Calm - N/A   Mist
4:30 AM 39.2 °F 37.4 °F 93% 30.32 in 1.5 mi Calm Calm - N/A   Overcast
4:34 AM 39.2 °F 37.4 °F 93% 30.32 in 0.8 mi Calm Calm - N/A   Mist
4:41 AM 39.2 °F 37.4 °F 93% 30.32 in 1.0 mi Calm Calm - N/A   Mist
4:52 AM 39.0 °F 37.9 °F 96% 30.34 in 0.5 mi Calm Calm - N/A Fog Fog
4:59 AM 39.2 °F 37.4 °F 93% 30.32 in 0.2 mi Calm Calm - N/A Fog Fog
5:52 AM 39.0 °F 37.9 °F 96% 30.35 in 0.2 mi Calm Calm - N/A Fog Fog
6:52 AM 37.9 °F 37.9 °F 100% 30.38 in 0.2 mi Calm Calm - N/A Fog Fog
7:52 AM 42.1 °F 41.0 °F 96% 30.38 in 0.5 mi Calm Calm - N/A Fog Fog
8:07 AM 42.8 °F 42.8 °F 100% 30.35 in 1.5 mi Calm Calm - N/A   Overcast
8:15 AM 44.6 °F 42.8 °F 93% 30.36 in 2.0 mi Calm Calm - N/A   Overcast
8:20 AM 44.6 °F 42.8 °F 93% 30.36 in 1.2 mi Calm Calm - N/A   Overcast
8:31 AM 44.6 °F 44.6 °F 100% 30.36 in 2.0 mi Calm Calm - N/A   Overcast
8:38 AM 46.4 °F 44.6 °F 93% 30.36 in 10.0 mi Calm Calm - N/A   Mostly Cloudy
8:52 AM 46.9 °F 46.0 °F 97% 30.38 in 10.0 mi Calm Calm - N/A   Partly Cloudy
9:52 AM 57.9 °F 46.9 °F 67% 30.37 in 10.0 mi Calm Calm - N/A   Clear
10:52 AM 64.9 °F 46.9 °F 52% 30.36 in 10.0 mi Calm Calm - N/A   Clear
11:52 AM 70.0 °F 51.1 °F 51% 30.34 in 10.0 mi Calm Calm - N/A   Clear
12:52 PM 75.0 °F 53.1 °F 46% 30.33 in 10.0 mi Variable 3.5 mph - N/A   Clear
1:52 PM 77.0 °F 52.0 °F 42% 30.31 in 10.0 mi Variable 3.5 mph - N/A   Clear
2:52 PM 77.0 °F 46.9 °F 34% 30.30 in 10.0 mi SSW 3.5 mph - N/A   Clear
3:52 PM 78.1 °F 46.9 °F 33% 30.29 in 10.0 mi Variable 3.5 mph - N/A   Clear
4:52 PM 79.0 °F 44.1 °F 29% 30.28 in 10.0 mi Calm Calm - N/A   Clear
6:52 PM 64.0 °F 57.9 °F 80% 30.30 in 10.0 mi Calm Calm - N/A   Clear
8:52 PM 53.1 °F 51.1 °F 93% 30.34 in 10.0 mi Calm Calm - N/A   Clear
9:52 PM 50.0 °F 48.9 °F 96% 30.35 in 10.0 mi Calm Calm - N/A   Clear
10:44 PM 48.2 °F 46.4 °F 93% 30.33 in 5.0 mi Calm Calm - N/A   Partly Cloudy
10:52 PM 48.0 °F 46.9 °F 96% 30.34 in 3.0 mi Calm Calm - N/A   Scattered Clouds
11:04 PM 48.2 °F 46.4 °F 93% 30.33 in 7.0 mi Calm Calm - N/A   Mostly Cloudy
11:14 PM 48.2 °F 46.4 °F 93% 30.33 in 10.0 mi Calm Calm - N/A   Scattered Clouds
11:52 PM 46.9 °F 44.1 °F 90% 30.34 in 9.0 mi Calm Calm - N/A   Mostly Cloudy